Terminal Aerodrome Forecast
Issued by NWS

Current Version | Previous Version | Graphics & Text | Print | Product List | Glossary On
Versions: 1 2 3 4 5 6 7 8 9 10 11 12 13 14 15 16 17 18 19 20
923
FTUS41 KPBZ 170538
TAFHLG
TAF
KHLG 170538Z 1706/1806 26006KT P6SM OVC025
     FM170900 24003KT P6SM BKN035
     FM171300 24003KT P6SM BKN050
     FM171900 18003KT P6SM SCT100=

USA.gov is the U.S. government's official web portal to all federal, state and local government web resources and services.